TIANWANG 1C (TW-1C)
1 40926U 15051B   19253.80723439 +.00011401 +00000-0 +15815-3 0  9999
2 40926 097.1278 299.9117 0009420 066.3397 355.1320 15.57157300223240
TIANWANG 1B (TW-1B)
1 40927U 15051C   19253.78976800 +.00010643 +00000-0 +15710-3 0  9990
2 40927 097.1314 299.0954 0009623 074.6100 352.1243 15.55484441223081
TIANWANG 1A (TW-1A)
1 40928U 15051D   19253.77679488 +.00002831 +00000-0 +70135-4 0  9995
2 40928 097.1407 283.2127 0012364 122.6378 295.6118 15.41150281222122
LAPAN A2
1 40931U 15052B   19253.16999455  .00000714  00000-0  10228-4 0  9997
2 40931   5.9962 181.2998 0013794 258.3587 101.5453 14.76613971213628
LQSAT
1 40958U 15057A   19253.79190121 -.00000019 +00000-0 +47165-5 0  9993
2 40958 097.8922 320.6879 0017478 335.6215 024.4165 14.73087964211186
CHUBUSAT 2
1 41338U 16012B   19253.46223237 +.00000302 +00000-0 +16694-4 0  9993
2 41338 031.0040 332.3910 0013773 213.4283 146.5483 15.00176040195509
CHUBUSAT 3
1 41339U 16012C   19253.62154804 +.00000303 +00000-0 +16711-4 0  9996
2 41339 031.0122 329.3631 0013531 222.9340 137.0243 15.00349962195524
OUFTI-1
1 41458U 16025C   19253.77803025 +.00001072 +00000-0 +57829-4 0  9993
2 41458 098.1012 344.8981 0167455 074.5438 287.4213 15.06002865185229
E-STAR-2
1 41459U 16025D   19253.81473636 +.00000912 +00000-0 +50218-4 0  9997
2 41459 098.0997 344.5513 0168501 075.7829 286.2055 15.05624087185203
AAUSAT 4
1 41460U 16025E   19253.81684443 +.00001459 +00000-0 +76104-4 0  9998
2 41460 098.0970 346.0091 0158317 067.7391 294.0523 15.07579885185342
NUSAT 1
1 41557U 16033B   19253.77641408 +.00000947 +00000-0 +38039-4 0  9999
2 41557 097.4164 340.7876 0013851 008.0353 352.1106 15.27357437182921
BEESAT 4
1 41619U 16040W   19253.14313489 +.00001080 +00000-0 +48418-4 0  9993
2 41619 097.3604 313.7858 0013056 090.7121 269.5612 15.23278992166565
PRATHAM
1 41783U 16059A   19253.72342976 +.00000017 +00000-0 +12560-4 0  9990
2 41783 098.0600 311.4164 0034807 118.8704 241.5999 14.63007760157836
ALSAT 1N
1 41789U 16059G   19253.70870443 +.00000026 +00000-0 +13829-4 0  9998
2 41789 098.0637 313.5811 0029531 108.1815 252.2604 14.64259777157949
NAYIF 1
1 42017U 17008BX  19253.71833297 +.00001113 +00000-0 +46516-4 0  9992
2 42017 097.3967 319.9241 0005035 221.0688 139.0172 15.25693904142730
MAX VALIER SAT
1 42778U 17036P   19253.74472324 +.00000648 +00000-0 +31267-4 0  9999
2 42778 097.3470 309.5289 0010679 292.0799 067.9303 15.22121793123026
